OK,109,41,950,109,2014-10-01T01:40:00,0,28072720,195870
OK,109,41,950,109,2014-10-01T01:45:00,0,28073167,195870
OK,109,41,950,109,2014-10-01T01:50:00,0,28073615,195870
OK,109,41,950,109,2014-10-01T01:55:00,0,28073933,195870
OK,109,41,950,109,2014-10-01T02:00:00,0,28074382,195870
OK,109,41,950,109,2014-10-01T02:05:00,0,28074823,195870
OK,109,41,950,109,2014-10-01T02:10:00,0,28075271,195870
OK,109,41,950,109,2014-10-01T02:15:00,0,28075720,195870
OK,109,41,950,109,2014-10-01T02:20:00,0,28076103,195870
OK,109,41,950,109,2014-10-01T02:25:00,0,28076552,195870
OK,109,41,950,109,2014-10-01T02:30:00,0,28077001,195870
OK,109,41,950,109,2014-10-01T02:35:00,0,28077450,195870
OK,109,41,950,109,2014-10-01T02:40:00,0,28077853,195870
OK,109,41,950,109,2014-10-01T02:45:00,0,28078302,195870
OK,109,41,950,109,2014-10-01T02:50:00,0,28078747,195870
OK,109,41,950,109,2014-10-01T02:55:00,0,28079196,195870
OK,109,41,950,109,2014-10-01T03:00:00,0,28079638,195870
OK,109,41,950,109,2014-10-01T03:05:00,0,28080087,195870
OK,109,41,950,109,2014-10-01T03:10:00,0,28080421,195870
OK,109,41,950,109,2014-10-01T03:15:00,0,28080870,195870
OK,109,41,950,109,2014-10-01T03:20:00,0,28081319,195870
OK,109,41,950,109,2014-10-01T03:25:00,0,28081766,195870
OK,109,41,950,109,2014-10-01T03:30:00,0,28082215,195870
OK,109,41,950,109,2014-10-01T03:35:00,0,28082648,195870
OK,109,41,950,109,2014-10-01T03:40:00,0,28083080,195870
OK,109,41,950,109,2014-10-01T03:45:00,0,28083529,195870
OK,109,41,950,109,2014-10-01T03:50:00,0,28083978,195870
OK,109,41,950,109,2014-10-01T03:55:00,0,28084419,195870
OK,109,41,950,109,2014-10-01T04:00:00,0,28084844,195870
OK,109,41,950,109,2014-10-01T04:05:00,0,28085293,195870
OK,109,41,950,109,2014-10-01T04:10:00,0,28085738,195870
OK,109,41,950,109,2014-10-01T04:15:00,0,28086187,195870
OK,109,41,950,109,2014-10-01T04:20:00,0,28086629,195870
OK,109,41,950,109,2014-10-01T04:25:00,0,28087078,195870
OK,109,41,950,109,2014-10-01T04:30:00,0,28087523,195870
OK,109,41,950,109,2014-10-01T04:35:00,0,28087972,195870
OK,109,41,950,109,2014-10-01T04:40:00,0,28088396,195870
OK,109,41,950,109,2014-10-01T04:45:00,0,28088845,195870
OK,109,41,950,109,2014-10-01T04:50:00,0,28089275,195870
OK,108,42,950,108,2014-10-01T04:55:00,2,28089724,195870
OK,122,37,950,122,2014-10-01T05:00:00,1,28090173,195870
OK,122,37,950,122,2014-10-01T05:05:00,1,28090519,195870
OK,122,37,950,122,2014-10-01T05:10:00,0,28090966,195870
OK,229,19,950,229,2014-10-01T05:15:00,1,28091415,195870
OK,174,26,950,174,2014-10-01T05:20:00,2,28091832,195870
OK,131,34,950,131,2014-10-01T05:25:00,1,28092281,195870
OK,136,33,950,136,2014-10-01T05:30:00,2,28092725,195870
OK,126,36,950,126,2014-10-01T05:35:00,2,28093166,195870
OK,120,37,950,120,2014-10-01T05:40:00,1,28093597,195870
OK,137,33,950,137,2014-10-01T05:45:00,2,28094046,195870
OK,139,32,950,139,2014-10-01T05:50:00,3,28094457,195870
OK,133,34,950,133,2014-10-01T05:55:00,2,28094902,195870
OK,150,30,950,150,2014-10-01T06:00:00,1,28095349,195870
OK,150,30,950,150,2014-10-01T06:05:00,1,28095798,195870
OK,150,30,950,150,2014-10-01T06:10:00,0,28096211,195870
OK,150,30,950,150,2014-10-01T06:15:00,0,28096660,195870
OK,114,39,950,114,2014-10-01T06:20:00,2,28097094,195870
OK,110,41,950,110,2014-10-01T06:25:00,3,28097543,195870
OK,110,41,950,110,2014-10-01T06:30:00,1,28097992,195870
OK,110,41,950,110,2014-10-01T06:35:00,0,28098429,195870
OK,155,29,950,155,2014-10-01T06:40:00,1,28098873,195870
OK,119,38,950,119,2014-10-01T06:45:00,2,28099321,195870
OK,84,54,950,84,2014-10-01T06:50:00,1,28099664,195870
OK,84,54,950,84,2014-10-01T06:55:00,0,28100113,195870
OK,84,54,950,84,2014-10-01T07:00:00,0,28100420,195870
OK,115,39,950,115,2014-10-01T07:05:00,3,28100869,195870
OK,107,42,950,107,2014-10-01T07:10:00,5,28101240,195870
OK,115,39,950,115,2014-10-01T07:15:00,0,28101689,195870
OK,225,20,950,225,2014-10-01T07:20:00,1,28102125,195870
OK,225,20,950,225,2014-10-01T07:25:00,1,28102574,195870
OK,81,56,950,81,2014-10-01T07:30:00,1,28103002,195870
OK,81,56,950,81,2014-10-01T07:35:00,1,28103448,195870
OK,81,56,950,81,2014-10-01T07:40:00,0,28103893,195870
OK,124,36,950,124,2014-10-01T07:45:00,1,28104338,195870
OK,124,36,950,124,2014-10-01T07:50:00,1,28104779,195870
OK,124,36,950,124,2014-10-01T07:55:00,0,28105224,195870
OK,77,58,950,77,2014-10-01T08:00:00,1,28105664,195870
OK,77,58,950,77,2014-10-01T08:05:00,1,28106113,195870
OK,93,48,950,93,2014-10-01T08:10:00,1,28106550,195870
OK,93,48,950,93,2014-10-01T08:15:00,1,28106956,195870
OK,93,48,950,93,2014-10-01T08:20:00,0,28107388,195870
OK,93,48,950,93,2014-10-01T08:25:00,0,28107837,195870
OK,93,48,950,93,2014-10-01T08:30:00,0,28108276,195870
OK,118,38,950,118,2014-10-01T08:35:00,1,28108725,195870
OK,118,38,950,118,2014-10-01T08:40:00,1,28109153,195870
OK,118,38,950,118,2014-10-01T08:45:00,0,28109602,195870
OK,118,38,950,118,2014-10-01T08:50:00,0,28109945,195870
OK,123,36,950,123,2014-10-01T08:55:00,1,28110394,195870
OK,123,36,950,123,2014-10-01T09:00:00,1,28110817,195870
OK,123,36,950,123,2014-10-01T09:05:00,0,28111266,195870
OK,97,46,950,97,2014-10-01T09:10:00,1,28111695,195870
OK,91,49,950,91,2014-10-01T09:15:00,2,28112144,195870
OK,85,53,950,85,2014-10-01T09:20:00,1,28112485,195870
OK,85,53,950,85,2014-10-01T09:25:00,0,28112934,195870
OK,85,53,950,85,2014-10-01T09:30:00,0,28113358,195870
OK,121,37,950,121,2014-10-01T09:35:00,3,28113807,195870
OK,125,36,950,125,2014-10-01T09:40:00,4,28114239,195870
OK,129,35,950,129,2014-10-01T09:45:00,1,28114688,195870
OK,129,35,950,129,2014-10-01T09:50:00,0,28115042,195870
OK,101,44,950,101,2014-10-01T09:55:00,1,28115491,195870
OK,101,44,950,101,2014-10-01T10:00:00,0,28115903,195870
OK,101,44,950,101,2014-10-01T10:05:00,0,28116352,195870
OK,101,44,950,101,2014-10-01T10:10:00,0,28116760,195870
OK,89,51,950,89,2014-10-01T10:15:00,1,28117209,195870
OK,89,51,950,89,2014-10-01T10:20:00,1,28117634,195870
OK,119,38,950,119,2014-10-01T10:25:00,1,28118083,195870
OK,119,38,950,119,2014-10-01T10:30:00,1,28118528,195870
OK,119,38,950,119,2014-10-01T10:35:00,0,28118975,195870
OK,188,24,950,188,2014-10-01T10:40:00,1,28119419,195870
OK,104,43,950,104,2014-10-01T10:45:00,3,28119867,195870
OK,103,44,950,103,2014-10-01T10:50:00,2,28120315,195870
OK,103,44,950,103,2014-10-01T10:55:00,0,28120764,195870
OK,103,44,950,103,2014-10-01T11:00:00,0,28121147,195870
OK,103,44,950,103,2014-10-01T11:05:00,0,28121596,195870
OK,103,44,950,103,2014-10-01T11:10:00,0,28122034,195870
OK,103,44,950,103,2014-10-01T11:15:00,0,28122483,195870
OK,103,44,950,103,2014-10-01T11:20:00,0,28122924,195870
OK,101,44,950,101,2014-10-01T11:25:00,1,28123373,195870
OK,111,40,950,111,2014-10-01T11:30:00,3,28123805,195870
OK,122,37,950,122,2014-10-01T11:35:00,2,28124254,195870
OK,102,44,950,102,2014-10-01T11:40:00,1,28124656,195870
OK,110,41,950,110,2014-10-01T11:45:00,2,28125105,195870
OK,105,43,950,105,2014-10-01T11:50:00,2,28125534,195870
OK,105,43,950,105,2014-10-01T11:55:00,3,28125983,195870
OK,105,43,950,105,2014-10-01T12:00:00,2,28126335,195870
OK,105,43,950,105,2014-10-01T12:05:00,0,28126784,195870
OK,105,43,950,105,2014-10-01T12:10:00,0,28127233,195870
OK,105,43,950,105,2014-10-01T12:15:00,0,28127682,195870
OK,105,43,950,105,2014-10-01T12:20:00,0,28128110,195870
OK,105,43,950,105,2014-10-01T12:25:00,0,28128559,195870
OK,99,45,950,99,2014-10-01T12:30:00,1,28128994,195870
OK,99,45,950,99,2014-10-01T12:35:00,1,28129443,195870
OK,99,45,950,99,2014-10-01T12:40:00,0,28129877,195870
OK,99,45,950,99,2014-10-01T12:45:00,0,28130326,195870
OK,103,44,950,103,2014-10-01T12:50:00,1,28130754,195870
OK,103,44,950,103,2014-10-01T12:55:00,1,28131203,195870
OK,136,33,950,136,2014-10-01T13:00:00,1,28131640,195870
OK,113,40,950,113,2014-10-01T13:05:00,4,28132089,195870
OK,105,43,950,105,2014-10-01T13:10:00,4,28132527,195870
OK,155,29,950,155,2014-10-01T13:15:00,1,28132974,195870
OK,155,29,950,155,2014-10-01T13:20:00,1,28133412,195870
OK,155,29,950,155,2014-10-01T13:25:00,0,28133861,195870
OK,155,29,950,155,2014-10-01T13:30:00,0,28134300,195870
OK,155,29,950,155,2014-10-01T13:35:00,0,28134749,195870
OK,155,29,950,155,2014-10-01T13:40:00,0,28135168,195870
OK,154,29,950,154,2014-10-01T13:45:00,3,28135617,195870
OK,154,29,950,154,2014-10-01T13:50:00,3,28136054,195870
OK,130,34,950,130,2014-10-01T13:55:00,1,28136503,195870
OK,130,34,950,130,2014-10-01T14:00:00,0,28136943,195870
OK,130,34,950,130,2014-10-01T14:05:00,0,28137392,195870
OK,130,34,950,130,2014-10-01T14:10:00,0,28137826,195870
OK,130,34,950,130,2014-10-01T14:15:00,0,28138275,195870
OK,130,34,950,130,2014-10-01T14:20:00,0,28138703,195870
OK,130,34,950,130,2014-10-01T14:25:00,0,28139152,195870
OK,132,34,950,132,2014-10-01T14:30:00,2,28139563,195870
OK,132,34,950,132,2014-10-01T14:35:00,2,28140012,195870
OK,108,42,950,108,2014-10-01T14:40:00,0,28140454,195870
OK,113,40,950,113,2014-10-01T14:45:00,2,28140903,195870
OK,113,40,950,113,2014-10-01T14:50:00,2,28141329,195870
OK,113,40,950,113,2014-10-01T14:55:00,0,28141778,195870
OK,113,40,950,113,2014-10-01T15:00:00,0,28142206,195870
OK,113,40,950,113,2014-10-01T15:05:00,0,28142655,195870
OK,98,46,950,98,2014-10-01T15:10:00,1,28143082,195870
OK,98,46,950,98,2014-10-01T15:15:00,0,28143531,195870
OK,98,46,950,98,2014-10-01T15:20:00,0,28143979,195870
OK,98,46,950,98,2014-10-01T15:25:00,0,28144428,195870
OK,98,46,950,98,2014-10-01T15:30:00,0,28144849,195870
OK,98,46,950,98,2014-10-01T15:35:00,0,28145263,195870
OK,98,46,950,98,2014-10-01T15:40:00,0,28145712,195870
OK,98,46,950,98,2014-10-01T15:45:00,0,28146161,195870
OK,98,46,950,98,2014-10-01T15:50:00,0,28146610,195870
OK,98,46,950,98,2014-10-01T15:55:00,0,28147018,195870
OK,98,46,950,98,2014-10-01T16:00:00,0,28147462,195870
OK,98,46,950,98,2014-10-01T16:05:00,0,28147911,195870
OK,98,46,950,98,2014-10-01T16:10:00,0,28148312,195870
OK,98,46,950,98,2014-10-01T16:15:00,0,28148761,195870
OK,98,46,950,98,2014-10-01T16:20:00,0,28149200,195870
OK,98,46,950,98,2014-10-01T16:25:00,0,28149649,195870
OK,98,46,950,98,2014-10-01T16:30:00,0,28150075,195870
OK,100,45,950,100,2014-10-01T16:35:00,2,28150524,195870
OK,100,45,950,100,2014-10-01T16:40:00,2,28150942,195870
OK,100,45,950,100,2014-10-01T16:45:00,0,28151391,195870
OK,100,45,950,100,2014-10-01T16:50:00,0,28151840,195870
OK,100,45,950,100,2014-10-01T17:00:00,0,28152289,195870
OK,100,45,950,100,2014-10-01T17:05:00,0,28152735,195870
OK,100,45,950,100,2014-10-01T17:10:00,0,28153182,195870
OK,100,45,950,100,2014-10-01T17:15:00,0,28153631,195870
OK,100,45,950,100,2014-10-01T17:20:00,0,28154041,195870
OK,100,45,950,100,2014-10-01T17:25:00,0,28154490,195870
OK,100,45,950,100,2014-10-01T17:30:00,0,28154932,195870
OK,100,45,950,100,2014-10-01T17:35:00,0,28155380,195870
OK,100,45,950,100,2014-10-01T17:40:00,0,28155798,195870
OK,100,45,950,100,2014-10-01T17:45:00,0,28156247,195870
OK,100,45,950,100,2014-10-01T17:50:00,0,28156696,195870
OK,100,45,950,100,2014-10-01T17:55:00,0,28157134,195870
OK,100,45,950,100,2014-10-01T18:00:00,0,28157564,195870
OK,100,45,950,100,2014-10-01T18:05:00,0,28158012,195870
OK,100,45,950,100,2014-10-01T18:10:00,0,28158456,195870
OK,100,45,950,100,2014-10-01T18:15:00,0,28158902,195870
OK,100,45,950,100,2014-10-01T18:20:00,0,28159348,195870
OK,100,45,950,100,2014-10-01T18:25:00,0,28159683,195870
OK,100,45,950,100,2014-10-01T18:30:00,0,28160132,195870
OK,100,45,950,100,2014-10-01T18:35:00,0,28160581,195870
OK,100,45,950,100,2014-10-01T18:40:00,0,28161019,195870
OK,100,45,950,100,2014-10-01T18:45:00,0,28161468,195870
OK,100,45,950,100,2014-10-01T18:50:00,0,28161885,195870
OK,100,45,950,100,2014-10-01T18:55:00,0,28162334,195870
OK,100,45,950,100,2014-10-01T19:00:00,0,28162728,195870
OK,132,34,950,132,2014-10-01T19:05:00,1,28163167,195870
OK,105,43,950,105,2014-10-01T19:10:00,2,28163615,195870
OK,78,58,950,78,2014-10-01T19:15:00,0,28164064,195870
OK,78,58,950,78,2014-10-01T19:20:00,0,28164495,195870
OK,78,58,950,78,2014-10-01T19:25:00,0,28164944,195870
OK,78,58,950,78,2014-10-01T19:30:00,0,28165369,195870
OK,78,58,950,78,2014-10-01T19:35:00,0,28165817,195870
OK,78,58,950,78,2014-10-01T19:40:00,0,28166258,195870
OK,98,46,950,98,2014-10-01T19:45:00,1,28166620,195870
OK,98,46,950,98,2014-10-01T19:50:00,0,28167069,195870
OK,98,46,950,98,2014-10-01T19:55:00,0,28167498,195870
OK,98,46,950,98,2014-10-01T20:00:00,0,28167931,195870
OK,98,46,950,98,2014-10-01T20:05:00,0,28168380,195870
OK,113,40,950,113,2014-10-01T20:10:00,1,28168825,195870
OK,113,40,950,113,2014-10-01T20:15:00,0,28169274,195870
OK,113,40,950,113,2014-10-01T20:20:00,0,28169722,195870
OK,113,40,950,113,2014-10-01T20:25:00,0,28170148,195870
OK,113,40,950,113,2014-10-01T20:30:00,0,28170593,195870
OK,113,40,950,113,2014-10-01T20:35:00,0,28171041,195870
OK,113,40,950,113,2014-10-01T20:40:00,0,28171478,195870
OK,113,40,950,113,2014-10-01T20:45:00,0,28171924,195870
OK,113,40,950,113,2014-10-01T20:50:00,0,28172372,195870
OK,113,40,950,113,2014-10-01T20:55:00,0,28172818,195870
OK,113,40,950,113,2014-10-01T21:00:00,0,28173264,195870
OK,113,40,950,113,2014-10-01T21:05:00,0,28173713,195870
OK,113,40,950,113,2014-10-01T21:10:00,0,28174154,195870
OK,113,40,950,113,2014-10-01T21:15:00,0,28174603,195870
OK,113,40,950,113,2014-10-01T21:20:00,0,28175029,195870
OK,113,40,950,113,2014-10-01T21:25:00,0,28175425,195870
OK,113,40,950,113,2014-10-01T21:30:00,0,28175874,195870
OK,113,40,950,113,2014-10-01T21:35:00,0,28176323,195870
OK,113,40,950,113,2014-10-01T21:40:00,0,28176772,195870
OK,113,40,950,113,2014-10-01T21:45:00,0,28177128,195870
OK,113,40,950,113,2014-10-01T21:50:00,0,28177568,195870
OK,113,40,950,113,2014-10-01T21:55:00,0,28178014,195870
OK,113,40,950,113,2014-10-01T22:00:00,0,28178463,195870
OK,113,40,950,113,2014-10-01T22:05:00,0,28178910,195870
OK,113,40,950,113,2014-10-01T22:10:00,0,28179344,195870
OK,113,40,950,113,2014-10-01T22:15:00,0,28179787,195870
OK,113,40,950,113,2014-10-01T22:20:00,0,28180234,195870
OK,113,40,950,113,2014-10-01T22:25:00,0,28180632,195870
OK,113,40,950,113,2014-10-01T22:30:00,0,28181081,195870
OK,113,40,950,113,2014-10-01T22:35:00,0,28181505,195870
OK,113,40,950,113,2014-10-01T22:40:00,0,28181953,195870
OK,113,40,950,113,2014-10-01T22:45:00,0,28182400,195870
OK,113,40,950,113,2014-10-01T22:50:00,0,28182849,195870
OK,113,40,950,113,2014-10-01T22:55:00,0,28183266,195870
OK,113,40,950,113,2014-10-01T23:00:00,0,28183699,195870
OK,113,40,950,113,2014-10-01T23:05:00,0,28184144,195870
OK,113,40,950,113,2014-10-01T23:10:00,0,28184593,195870
OK,113,40,950,113,2014-10-01T23:15:00,0,28185028,195870
OK,113,40,950,113,2014-10-01T23:20:00,0,28185476,195870
OK,113,40,950,113,2014-10-01T23:25:00,0,28185907,195870
OK,113,40,950,113,2014-10-01T23:30:00,0,28186299,195870
OK,113,40,950,113,2014-10-01T23:40:00,0,28187146,195870
OK,113,40,950,113,2014-10-01T23:55:00,0,28188478,195870
OK,113,40,950,113,2014-10-02T00:05:00,0,28189363,195870
OK,113,40,950,113,2014-10-02T00:10:00,0,28189785,195870
OK,113,40,950,113,2014-10-02T00:15:00,0,28190234,195870
OK,113,40,950,113,2014-10-02T00:20:00,0,28190587,195870
OK,113,40,950,113,2014-10-02T00:30:00,0,28191485,195870
OK,113,40,950,113,2014-10-02T00:35:00,0,28191791,195870
OK,113,40,950,113,2014-10-02T00:40:00,0,28192240,195870
OK,113,40,950,113,2014-10-02T00:45:00,0,28192673,195870
OK,113,40,950,113,2014-10-02T00:50:00,0,28193117,195870
OK,113,40,950,113,2014-10-02T00:55:00,0,28193484,195870
OK,113,40,950,113,2014-10-02T01:05:00,0,28194382,195870
OK,113,40,950,113,2014-10-02T01:10:00,0,28194831,195870
OK,113,40,950,113,2014-10-02T01:15:00,0,28195068,195870
OK,113,40,950,113,2014-10-02T01:25:00,0,28195965,195870
OK,113,40,950,113,2014-10-02T01:30:00,0,28196253,195870
OK,113,40,950,113,2014-10-02T01:35:00,0,28196698,195870
OK,113,40,950,113,2014-10-02T01:40:00,0,28197121,195870
OK,113,40,950,113,2014-10-02T01:45:00,0,28197570,195870
OK,113,40,950,113,2014-10-02T01:50:00,0,28198018,195870
OK,113,40,950,113,2014-10-02T01:55:00,0,28198466,195870
OK,113,40,950,113,2014-10-02T02:00:00,0,28198915,195870
OK,113,40,950,113,2014-10-02T02:05:00,0,28199287,195870
OK,113,40,950,113,2014-10-02T02:10:00,0,28199729,195870
OK,113,40,950,113,2014-10-02T02:15:00,0,28200171,195870
OK,113,40,950,113,2014-10-02T02:20:00,0,28200614,195870
OK,113,40,950,113,2014-10-02T02:25:00,0,28201063,195870
OK,113,40,950,113,2014-10-02T02:30:00,0,28201494,195870
OK,113,40,950,113,2014-10-02T02:45:00,0,28202392,195870
OK,113,40,950,113,2014-10-02T02:50:00,0,28202834,195870
OK,113,40,950,113,2014-10-02T02:55:00,0,28203282,195870
OK,113,40,950,113,2014-10-02T03:00:00,0,28203717,195870
OK,113,40,950,113,2014-10-02T03:10:00,0,28204166,195870
OK,113,40,950,113,2014-10-02T03:25:00,0,28204615,195870
OK,113,40,950,113,2014-10-02T03:30:00,0,28205064,195870
OK,113,40,950,113,2014-10-02T03:35:00,0,28205492,195870
OK,113,40,950,113,2014-10-02T03:40:00,0,28205939,195870
OK,113,40,950,113,2014-10-02T03:45:00,0,28206322,195870
OK,113,40,950,113,2014-10-02T03:55:00,0,28207220,195870
OK,113,40,950,113,2014-10-02T04:00:00,0,28207640,195870
OK,113,40,950,113,2014-10-02T04:05:00,0,28208088,195870
OK,113,40,950,113,2014-10-02T04:10:00,0,28208515,195870
OK,113,40,950,113,2014-10-02T04:15:00,0,28208964,195870
OK,113,40,950,113,2014-10-02T04:20:00,0,28209402,195870
OK,113,40,950,113,2014-10-02T04:25:00,0,28209851,195870
OK,113,40,950,113,2014-10-02T04:30:00,0,28210274,195870
OK,113,40,950,113,2014-10-02T04:35:00,0,28210723,195870
OK,113,40,950,113,2014-10-02T04:40:00,0,28211148,195870
OK,113,40,950,113,2014-10-02T04:45:00,0,28211592,195870
OK,113,40,950,113,2014-10-02T04:50:00,0,28211970,195870
OK,106,42,950,106,2014-10-02T04:55:00,2,28212419,195870
OK,106,42,950,106,2014-10-02T05:00:00,0,28212848,195870
OK,83,54,950,83,2014-10-02T05:05:00,0,28213297,195870
OK,83,54,950,83,2014-10-02T05:10:00,0,28213735,195870
OK,92,49,950,92,2014-10-02T05:15:00,1,28214184,195870
OK,92,49,950,92,2014-10-02T05:20:00,1,28214597,195870
OK,99,45,950,99,2014-10-02T05:25:00,1,28215046,195870
OK,99,45,950,99,2014-10-02T05:30:00,1,28215462,195870
OK,99,45,950,99,2014-10-02T05:35:00,0,28215911,195870
OK,125,36,950,125,2014-10-02T05:40:00,4,28216251,195870
OK,147,30,950,147,2014-10-02T05:45:00,0,28216690,195870
OK,147,30,950,147,2014-10-02T05:50:00,0,28217137,195870
OK,130,34,950,130,2014-10-02T05:55:00,0,28217586,195870
OK,143,31,950,143,2014-10-02T06:00:00,1,28218025,195870
OK,130,34,950,130,2014-10-02T06:05:00,2,28218474,195870
OK,118,38,950,118,2014-10-02T06:10:00,0,28218894,195870
OK,118,38,950,118,2014-10-02T06:15:00,0,28219343,195870
OK,118,38,950,118,2014-10-02T06:20:00,0,28219716,195870
OK,113,40,950,113,2014-10-02T06:25:00,2,28220165,195870
OK,113,40,950,113,2014-10-02T06:30:00,3,28220599,195870
OK,163,27,950,163,2014-10-02T06:35:00,1,28221048,195870
OK,108,42,950,108,2014-10-02T06:40:00,2,28221429,195870
OK,108,42,950,108,2014-10-02T06:45:00,2,28221715,195870
OK,94,48,950,94,2014-10-02T07:00:00,1,28222309,195870
OK,94,48,950,94,2014-10-02T07:05:00,0,28222758,195870
OK,106,42,950,106,2014-10-02T07:10:00,1,28223189,195870
OK,106,42,950,106,2014-10-02T07:15:00,1,28223624,195870
OK,106,42,950,106,2014-10-02T07:20:00,0,28224072,195870
OK,106,42,950,106,2014-10-02T07:25:00,0,28224427,195870
OK,106,42,950,106,2014-10-02T07:30:00,0,28224876,195870
OK,106,42,950,106,2014-10-02T07:35:00,0,28225325,195870
OK,106,42,950,106,2014-10-02T07:40:00,0,28225647,195870
OK,106,42,950,106,2014-10-02T07:50:00,0,28226537,195870
OK,106,42,950,106,2014-10-02T07:55:00,0,28226986,195870
OK,106,42,950,106,2014-10-02T08:00:00,0,28227401,195870
OK,91,49,950,91,2014-10-02T08:05:00,2,28227850,195870
OK,91,49,950,91,2014-10-02T08:10:00,0,28228209,195870
OK,91,49,950,91,2014-10-02T08:15:00,0,28228658,195870
OK,91,49,950,91,2014-10-02T08:20:00,0,28229068,195870
OK,76,59,950,76,2014-10-02T08:25:00,1,28229517,195870
OK,76,59,950,76,2014-10-02T08:30:00,0,28229867,195870
OK,126,36,950,126,2014-10-02T08:35:00,0,28230316,195870
OK,126,36,950,126,2014-10-02T08:40:00,0,28230682,195870
OK,126,36,950,126,2014-10-02T08:45:00,0,28231131,195870
OK,126,36,950,126,2014-10-02T08:50:00,0,28231554,195870
OK,126,36,950,126,2014-10-02T08:55:00,0,28232003,195870
OK,126,36,950,126,2014-10-02T09:00:00,0,28232345,195870
OK,126,36,950,126,2014-10-02T09:10:00,0,28232794,195870
OK,126,36,950,126,2014-10-02T09:15:00,0,28233243,195870
OK,126,36,950,126,2014-10-02T09:20:00,0,28233667,195870
OK,126,36,950,126,2014-10-02T09:25:00,0,28234116,195870
OK,126,36,950,126,2014-10-02T09:30:00,0,28234449,195870
OK,126,36,950,126,2014-10-02T09:40:00,0,28235325,195870
OK,117,38,950,117,2014-10-02T09:45:00,4,28235774,195870
OK,119,38,950,119,2014-10-02T09:50:00,1,28236217,195870
OK,119,38,950,119,2014-10-02T09:55:00,0,28236664,195870
OK,119,38,950,119,2014-10-02T10:00:00,0,28237067,195870
OK,119,38,950,119,2014-10-02T10:05:00,0,28237515,195870
OK,119,38,950,119,2014-10-02T10:10:00,0,28237963,195870
OK,119,38,950,119,2014-10-02T10:15:00,0,28238410,195870
OK,119,38,950,119,2014-10-02T10:20:00,0,28238851,195870
OK,120,37,950,120,2014-10-02T10:25:00,1,28239300,195870
OK,119,38,950,119,2014-10-02T10:30:00,0,28239730,195870
OK,120,37,950,120,2014-10-02T10:35:00,0,28240179,195870
OK,120,37,950,120,2014-10-02T10:40:00,0,28240623,195870
OK,120,37,950,120,2014-10-02T10:45:00,0,28241072,195870
OK,120,37,950,120,2014-10-02T10:50:00,0,28241504,195870
OK,120,37,950,120,2014-10-02T10:55:00,0,28241952,195870
OK,120,37,950,120,2014-10-02T11:00:00,0,28242348,195870
OK,120,37,950,120,2014-10-02T11:05:00,0,28242797,195870
OK,92,49,950,92,2014-10-02T11:10:00,2,28243246,195870
OK,92,49,950,92,2014-10-02T11:15:00,2,28243575,195870
OK,95,47,950,95,2014-10-02T11:20:00,0,28244009,195870
OK,95,47,950,95,2014-10-02T11:25:00,0,28244438,195870
OK,95,47,950,95,2014-10-02T11:30:00,0,28244887,195870
OK,148,30,950,148,2014-10-02T11:35:00,0,28245336,195870
OK,148,30,950,148,2014-10-02T11:40:00,0,28245742,195870
OK,148,30,950,148,2014-10-02T11:45:00,0,28246191,195870
OK,148,30,950,148,2014-10-02T11:50:00,0,28246628,195870
OK,148,30,950,148,2014-10-02T11:55:00,0,28247077,195870
OK,148,30,950,148,2014-10-02T12:00:00,0,28247523,195870
OK,148,30,950,148,2014-10-02T12:05:00,0,28247953,195870
OK,148,30,950,148,2014-10-02T12:10:00,0,28248402,195870
OK,128,35,950,128,2014-10-02T12:15:00,0,28248849,195870
OK,128,35,950,128,2014-10-02T12:20:00,0,28249277,195870
OK,136,33,950,136,2014-10-02T12:25:00,0,28249721,195870
OK,136,33,950,136,2014-10-02T12:30:00,0,28250140,195870
OK,109,41,950,109,2014-10-02T12:35:00,1,28250538,195870
OK,267,17,950,267,2014-10-02T13:20:00,1,28251863,195870
OK,267,17,950,267,2014-10-02T13:30:00,0,28252447,195870
OK,267,17,950,267,2014-10-02T13:35:00,0,28252889,195870
OK,267,17,950,267,2014-10-02T13:40:00,0,28253306,195870
OK,267,17,950,267,2014-10-02T13:45:00,0,28253755,195870
OK,267,17,950,267,2014-10-02T13:50:00,0,28254160,195870
OK,267,17,950,267,2014-10-02T13:55:00,0,28254481,195870
OK,80,56,950,80,2014-10-02T14:10:00,1,28255058,195870
OK,80,56,950,80,2014-10-02T14:15:00,0,28255507,195870
OK,80,56,950,80,2014-10-02T14:20:00,0,28255935,195870
OK,80,56,950,80,2014-10-02T14:25:00,0,28256384,195870
OK,80,56,950,80,2014-10-02T14:30:00,0,28256812,195870
OK,80,56,950,80,2014-10-02T14:35:00,0,28257261,195870
OK,80,56,950,80,2014-10-02T14:40:00,0,28257702,195870
OK,80,56,950,80,2014-10-02T14:45:00,0,28258150,195870
OK,148,30,950,148,2014-10-02T14:50:00,1,28258583,195870
OK,148,30,950,148,2014-10-02T14:55:00,1,28259029,195870
OK,148,30,950,148,2014-10-02T15:00:00,0,28259478,195870
OK,91,49,950,91,2014-10-02T15:05:00,1,28259925,195870
OK,91,49,950,91,2014-10-02T15:10:00,0,28260358,195870
OK,91,49,950,91,2014-10-02T15:15:00,0,28260807,195870
OK,91,49,950,91,2014-10-02T15:20:00,0,28261247,195870
OK,106,42,950,106,2014-10-02T15:25:00,1,28261629,195870